period_start,C,m1,H,J0,J1,J2,J3,J4,J5,JA,JB,JC,JD,JJ,JK,JN,#
2015-12-19 00:04:02,0.14,12.94,0.00,11.86,16.19,20.12,15.34,52.10,1024.39,2070.06,963.53,1349.14,1512.00,599.93,624.14,52.94,0000 0000 0000 0000 000000
2015-12-19 00:09:03,0.02,12.95,0.00,11.85,16.19,20.08,15.32,52.00,1024.27,2070.03,963.06,1349.00,1511.97,599.89,623.95,52.99,0000 0000 0000 0000 000000
2015-12-19 00:14:04,0.04,12.95,0.00,11.87,16.18,20.12,15.19,51.78,1024.28,2070.03,962.99,1348.99,1511.42,599.57,623.54,53.04,0000 0000 0000 0000 000000
2015-12-19 00:19:05,0.06,12.95,0.00,11.86,16.17,20.08,15.34,51.90,1024.37,2070.04,962.73,1348.90,1511.05,599.69,623.73,53.09,0000 0000 0000 0000 000000
2015-12-19 00:24:07,0.13,12.96,0.00,11.85,16.17,20.09,15.35,52.04,1024.41,2070.04,962.19,1348.30,1511.00,600.10,624.20,53.14,0000 0000 0000 0000 000000
2015-12-19 00:29:08,0.03,12.96,0.00,11.83,16.17,20.11,15.38,52.13,1024.43,2070.02,962.00,1348.03,1510.91,600.38,624.53,53.19,0000 0000 0000 0000 000000
2015-12-19 00:34:09,0.05,12.96,0.00,11.84,16.17,20.12,15.34,52.14,1024.43,2070.05,961.94,1348.00,1510.27,600.29,624.46,53.24,0000 0000 0000 0000 000000
2015-12-19 00:39:11,0.12,12.97,0.00,11.82,16.16,20.11,15.39,52.15,1024.43,2070.04,961.17,1347.92,1510.01,599.92,624.04,53.29,0000 0000 0000 0000 000000
2015-12-19 00:44:12,0.06,12.97,0.00,11.82,16.15,20.11,15.31,52.20,1024.43,2070.04,960.97,1347.48,1509.96,599.92,624.15,53.34,0000 0000 0000 0000 000000
2015-12-19 00:49:13,0.08,12.98,0.00,11.81,16.15,20.05,15.32,51.95,1024.43,2070.09,960.94,1347.02,1509.32,599.98,624.13,53.39,0000 0000 0000 0000 000000
2015-12-19 00:54:14,0.12,12.98,0.00,11.83,16.15,20.13,15.36,52.12,1024.36,2070.05,960.13,1346.99,1509.01,600.56,624.62,53.44,0000 0000 0000 0000 000000
2015-12-19 00:59:15,0.03,12.98,0.00,11.82,16.15,20.13,15.29,52.08,1024.25,2070.04,959.98,1346.77,1508.98,599.68,623.71,53.49,0000 0000 0000 0000 000000
2015-12-19 01:04:17,0.05,12.99,0.00,11.82,16.15,20.11,15.35,52.06,1024.08,2070.02,959.94,1346.28,1508.83,600.12,624.10,53.54,0000 0000 0000 0000 000000
2015-12-19 01:09:18,0.13,12.99,0.00,11.83,16.14,20.12,15.33,52.08,1024.10,2070.04,959.39,1346.02,1508.20,600.17,624.35,53.59,0000 0000 0000 0000 000000
2015-12-19 01:14:20,0.04,13.00,0.00,11.83,16.14,20.12,15.40,51.98,1024.09,2070.10,959.09,1346.00,1508.02,600.44,624.41,53.64,0000 0000 0000 0000 000000
2015-12-19 01:19:21,0.00,13.00,0.00,11.82,16.14,20.04,15.25,51.79,1024.01,2070.08,959.02,1345.99,1508.00,600.24,624.23,53.69,0000 0000 0000 0000 000000
2015-12-19 01:24:22,0.02,13.00,0.00,11.82,16.14,20.07,15.34,51.83,1023.96,2070.11,959.01,1345.98,1507.98,600.01,623.94,53.74,0000 0000 0000 0000 000000
2015-12-19 01:29:24,0.06,13.00,0.00,11.79,16.14,20.13,15.27,51.72,1023.94,2070.13,959.00,1345.63,1507.67,599.85,623.70,53.80,0000 0000 0000 0000 000000
2015-12-19 01:34:25,0.08,13.01,0.00,11.82,16.14,20.10,15.28,51.73,1023.94,2070.13,958.96,1345.12,1507.09,599.43,623.33,53.85,0000 0000 0000 0000 000000
2015-12-19 01:39:26,0.05,13.01,0.00,11.82,16.14,20.10,15.36,51.83,1023.94,2070.15,958.68,1345.00,1507.00,600.52,624.44,53.90,0000 0000 0000 0000 000000
2015-12-19 01:44:28,0.07,13.01,0.00,11.82,16.13,20.09,15.35,51.83,1023.94,2070.13,958.05,1345.00,1506.99,600.13,623.82,53.95,0000 0000 0000 0000 000000
2015-12-19 01:49:29,0.02,13.01,0.00,11.82,16.12,20.08,15.26,51.73,1023.94,2070.20,958.00,1344.97,1506.89,599.72,623.55,54.00,0000 0000 0000 0000 000000
2015-12-19 01:54:30,0.17,13.02,0.00,11.83,16.12,20.07,15.33,51.86,1023.94,2070.21,957.72,1344.53,1506.21,599.49,623.42,54.05,0000 0000 0000 0000 000000
2015-12-19 01:59:32,-0.04,13.02,0.00,11.84,16.12,20.00,15.39,51.81,1023.94,2070.11,957.83,1344.11,1506.02,600.23,624.08,54.10,0000 0000 0000 0000 000000
2015-12-19 02:04:33,0.12,13.02,0.00,11.82,16.11,20.02,15.29,51.74,1023.94,2070.14,957.16,1344.01,1506.00,599.89,623.80,54.15,0000 0000 0000 0000 000000
2015-12-19 02:09:34,0.02,13.03,0.00,11.79,16.09,20.06,15.31,51.81,1023.94,2070.09,956.99,1343.99,1505.77,600.09,624.23,54.20,0000 0000 0000 0000 000000
2015-12-19 02:14:36,0.07,13.03,0.00,11.81,16.09,20.04,15.41,52.08,1023.94,2070.18,956.84,1343.95,1505.22,600.21,624.09,54.25,0000 0000 0000 0000 000000
2015-12-19 02:19:37,0.18,13.04,0.00,11.79,16.09,19.96,15.38,51.92,1023.94,2070.35,956.24,1343.53,1505.02,599.92,623.89,54.30,0000 0000 0000 0000 000000
2015-12-19 02:24:38,0.10,13.04,0.00,11.77,16.09,20.01,15.32,52.02,1023.94,2070.63,956.00,1343.05,1505.00,600.22,624.21,54.35,0000 0000 0000 0000 000000
2015-12-19 02:29:39,0.07,13.05,0.00,11.77,16.08,19.99,15.34,52.01,1023.94,2070.74,955.73,1343.00,1504.97,599.91,623.84,54.40,0000 0000 0000 0000 000000
2015-12-19 02:34:41,0.01,13.05,0.00,11.78,16.07,19.99,15.42,52.08,1023.94,2070.85,955.71,1343.00,1504.71,599.95,623.90,54.45,0000 0000 0000 0000 000000
2015-12-19 02:39:42,0.08,13.05,0.00,11.79,16.07,20.01,15.28,52.13,1023.94,2070.86,955.26,1343.00,1504.11,599.66,623.61,54.50,0000 0000 0000 0000 000000
2015-12-19 02:44:43,-0.05,13.05,0.00,11.78,16.07,20.06,15.32,52.01,1023.94,2070.87,955.50,1342.97,1504.01,599.88,623.85,54.55,0000 0000 0000 0000 000000
2015-12-19 02:49:45,0.11,13.06,0.00,11.77,16.07,19.98,15.36,51.95,1023.94,2070.91,955.13,1342.78,1504.00,600.04,624.16,54.60,0000 0000 0000 0000 000000
2015-12-19 02:54:46,0.08,13.06,0.00,11.79,16.07,20.00,15.32,52.05,1023.97,2070.95,954.97,1342.13,1503.97,599.89,623.85,54.65,0000 0000 0000 0000 000000
2015-12-19 02:59:47,0.08,13.06,0.00,11.77,16.07,20.05,15.40,52.11,1023.95,2070.95,954.74,1342.01,1503.55,600.32,624.36,54.71,0000 0000 0000 0000 000000
2015-12-19 03:04:49,0.06,13.07,0.00,11.77,16.07,19.98,15.40,52.03,1023.96,2070.95,954.14,1342.00,1503.06,600.17,624.16,54.76,0000 0000 0000 0000 000000
2015-12-19 03:09:50,0.02,13.07,0.00,11.77,16.07,19.98,15.37,51.97,1023.96,2070.94,954.06,1341.98,1503.00,600.29,624.19,54.81,0000 0000 0000 0000 000000
2015-12-19 03:14:51,0.04,13.07,0.00,11.78,16.07,19.97,15.35,52.11,1023.97,2070.97,953.99,1341.68,1502.95,599.91,623.88,54.86,0000 0000 0000 0000 000000
2015-12-19 03:19:53,0.16,13.08,0.00,11.76,16.07,19.99,15.41,52.11,1023.95,2070.96,953.65,1341.13,1502.39,599.99,623.96,54.91,0000 0000 0000 0000 000000
2015-12-19 03:24:54,0.06,13.08,0.00,11.77,16.07,19.98,15.29,52.20,1023.94,2070.95,953.02,1341.00,1502.03,600.11,624.07,54.96,0000 0000 0000 0000 000000
2015-12-19 03:29:56,0.01,13.08,0.00,11.77,16.07,19.99,15.37,52.27,1023.95,2070.96,952.99,1340.99,1502.00,600.00,623.91,55.01,0000 0000 0000 0000 000000
2015-12-19 03:34:57,0.01,13.09,0.00,11.77,16.07,19.95,15.32,52.11,1023.96,2070.98,952.99,1340.96,1501.97,599.74,623.71,55.06,0000 0000 0000 0000 000000
2015-12-19 03:39:58,0.02,13.09,0.00,11.77,16.07,19.98,15.25,51.91,1023.96,2070.97,952.99,1340.86,1501.77,599.71,623.63,55.11,0000 0000 0000 0000 000000
2015-12-19 03:44:59,0.12,13.09,0.00,11.78,16.07,19.97,15.32,51.98,1024.04,2070.96,952.88,1340.22,1501.10,599.82,623.84,55.16,0000 0000 0000 0000 000000
2015-12-19 03:50:01,0.11,13.10,0.00,11.78,16.07,19.97,15.34,52.17,1024.14,2070.95,952.07,1340.01,1501.00,600.05,624.14,55.21,0000 0000 0000 0000 000000
2015-12-19 03:55:02,0.00,13.10,0.00,11.78,16.07,20.00,15.37,52.16,1024.08,2070.96,951.99,1339.99,1500.99,600.02,623.97,55.26,0000 0000 0000 0000 000000
2015-12-19 04:00:03,0.03,13.10,0.00,11.77,16.07,20.00,15.44,52.16,1024.03,2070.95,951.97,1339.92,1500.69,600.48,624.53,55.31,0000 0000 0000 0000 000000
2015-12-19 04:05:05,0.14,13.10,0.00,11.78,16.07,19.99,15.29,52.17,1024.12,2070.96,951.65,1339.46,1500.10,599.89,623.92,55.36,0000 0000 0000 0000 000000
2015-12-19 04:10:06,0.07,13.11,0.00,11.75,16.06,20.00,15.35,52.07,1024.04,2070.98,951.34,1339.12,1500.01,599.99,624.14,55.41,0000 0000 0000 0000 000000
2015-12-19 04:15:07,0.02,13.11,0.00,11.75,16.06,20.00,15.34,52.20,1023.98,2070.95,951.01,1339.00,1500.00,600.12,624.22,55.46,0000 0000 0000 0000 000000
2015-12-19 04:20:09,0.01,13.11,0.00,11.74,16.05,20.01,15.38,52.07,1023.96,2070.97,950.98,1338.99,1499.93,600.31,624.43,55.51,0000 0000 0000 0000 000000
2015-12-19 04:25:10,0.06,13.12,0.00,11.73,16.04,20.02,15.38,52.09,1023.95,2070.96,950.88,1338.94,1499.27,600.25,624.35,55.56,0000 0000 0000 0000 000000
2015-12-19 04:30:11,0.16,13.12,0.00,11.72,16.04,19.95,15.36,52.10,1023.94,2070.98,950.24,1338.46,1499.03,599.88,623.88,55.61,0000 0000 0000 0000 000000
2015-12-19 04:35:12,0.03,13.13,0.00,11.76,16.04,19.96,15.40,52.07,1023.94,2070.97,950.03,1338.05,1499.00,600.12,624.09,55.67,0000 0000 0000 0000 000000
2015-12-19 04:40:13,0.00,13.13,0.00,11.75,16.04,20.02,15.36,51.93,1023.94,2070.97,950.00,1338.01,1498.97,600.19,624.23,55.72,0000 0000 0000 0000 000000
2015-12-19 04:45:15,0.04,13.13,0.00,11.77,16.04,19.97,15.37,51.94,1023.94,2070.98,949.99,1338.00,1498.54,599.99,624.02,55.77,0000 0000 0000 0000 000000
2015-12-19 04:50:16,0.03,13.13,0.00,11.77,16.04,19.97,15.32,51.84,1023.94,2070.96,949.92,1337.95,1498.06,600.00,624.00,55.82,0000 0000 0000 0000 000000
2015-12-19 04:55:17,0.16,13.13,0.00,11.75,16.04,19.98,15.41,52.09,1023.93,2070.98,949.29,1337.49,1498.00,600.19,624.21,55.87,0000 0000 0000 0000 000000
2015-12-19 05:00:19,0.04,13.14,0.00,11.75,16.04,19.98,15.42,52.16,1023.90,2070.96,949.00,1337.03,1497.96,600.22,624.04,55.92,0000 0000 0000 0000 000000
2015-12-19 05:05:20,0.04,13.14,0.00,11.76,16.04,19.95,15.42,52.14,1023.88,2070.96,948.98,1337.00,1497.49,599.91,623.98,55.97,0000 0000 0000 0000 000000
2015-12-19 05:10:21,0.05,13.14,0.00,11.77,16.04,19.92,15.38,52.17,1023.92,2070.95,948.77,1336.99,1497.05,600.18,624.21,56.02,0000 0000 0000 0000 000000
2015-12-19 05:15:22,0.09,13.15,0.00,11.77,16.04,19.94,15.32,51.99,1023.93,2070.96,948.05,1336.90,1497.00,599.99,624.11,56.07,0000 0000 0000 0000 000000
2015-12-19 05:20:24,0.06,13.15,0.00,11.75,16.04,19.96,15.36,52.10,1023.92,2070.97,948.01,1336.39,1496.99,599.69,623.85,56.12,0000 0000 0000 0000 000000
2015-12-19 05:25:25,0.03,13.16,0.00,11.76,16.04,19.97,15.38,52.13,1023.90,2070.97,948.00,1336.06,1496.85,600.25,624.25,56.17,0000 0000 0000 0000 000000
2015-12-19 05:30:27,0.04,13.16,0.00,11.75,16.03,19.94,15.32,52.02,1023.91,2070.98,947.99,1336.00,1496.20,600.07,624.09,56.22,0000 0000 0000 0000 000000
2015-12-19 05:35:28,0.06,13.16,0.00,11.72,16.02,19.95,15.33,52.05,1023.89,2070.98,947.72,1336.00,1496.01,599.97,624.06,56.27,0000 0000 0000 0000 000000
2015-12-19 05:40:29,0.05,13.16,0.00,11.73,16.02,19.92,15.31,51.84,1023.76,2070.98,947.09,1335.98,1496.00,599.98,623.95,56.32,0000 0000 0000 0000 000000
2015-12-19 05:45:31,0.03,13.17,0.00,11.76,16.02,19.99,15.36,51.91,1023.77,2070.98,947.01,1335.81,1495.96,600.04,624.04,56.37,0000 0000 0000 0000 000000
2015-12-19 05:50:32,0.10,13.17,0.00,11.77,16.02,20.00,15.36,51.91,1023.78,2070.99,946.98,1335.19,1495.53,600.18,624.16,56.42,0000 0000 0000 0000 000000
2015-12-19 05:55:33,0.09,13.17,0.00,11.77,16.02,19.93,15.33,52.01,1023.90,2070.98,946.61,1335.00,1495.04,599.75,623.89,56.47,0000 0000 0000 0000 000000
2015-12-19 06:00:34,0.05,13.18,0.00,11.76,16.02,19.91,15.29,52.10,1023.92,2070.98,946.05,1334.99,1495.00,599.93,623.86,56.52,0000 0000 0000 0000 000000
2015-12-19 06:05:36,0.01,13.18,0.00,11.76,16.01,20.03,15.31,52.03,1023.93,2070.99,946.00,1334.94,1494.97,599.78,623.78,56.58,0000 0000 0000 0000 000000
2015-12-19 06:10:37,0.07,13.18,0.00,11.76,16.01,19.98,15.30,51.98,1023.93,2070.99,945.99,1334.63,1494.67,599.80,623.80,56.63,0000 0000 0000 0000 000000
2015-12-19 06:15:38,0.15,13.19,0.00,11.76,16.01,19.95,15.36,52.23,1023.84,2070.99,945.54,1334.05,1494.07,600.11,624.08,56.68,0000 0000 0000 0000 000000
2015-12-19 06:20:40,0.01,13.19,0.00,11.75,16.01,19.95,15.32,52.15,1023.91,2070.98,945.16,1334.00,1494.00,600.15,624.12,56.73,0000 0000 0000 0000 000000
2015-12-19 06:25:41,0.03,13.19,0.00,11.75,16.01,19.93,15.37,52.15,1023.94,2070.99,945.00,1333.99,1493.96,600.10,624.13,56.78,0000 0000 0000 0000 000000
2015-12-19 06:30:42,0.13,13.20,0.00,11.75,16.02,19.97,15.38,52.32,1023.94,2070.99,944.66,1333.76,1493.63,599.84,623.91,56.83,0000 0000 0000 0000 000000
2015-12-19 06:35:44,0.01,13.20,0.00,11.76,16.02,19.94,15.33,52.24,1023.94,2070.99,944.74,1333.31,1493.13,600.07,624.13,56.88,0000 0000 0000 0000 000000
2015-12-19 06:40:45,0.12,13.21,0.00,11.76,16.02,20.01,15.34,52.21,1023.94,2070.99,944.19,1333.03,1493.01,599.94,623.84,56.93,0000 0000 0000 0000 000000
2015-12-19 06:45:46,0.00,13.21,0.00,11.77,16.02,19.96,15.28,52.22,1023.94,2070.99,944.00,1333.00,1492.99,599.65,623.63,56.98,0000 0000 0000 0000 000000
2015-12-19 06:50:47,0.00,13.21,0.00,11.77,16.03,19.96,15.34,52.13,1023.94,2070.99,943.98,1332.99,1492.90,600.07,623.99,57.03,0000 0000 0000 0000 000000
2015-12-19 06:55:48,0.04,13.21,0.00,11.79,16.04,20.05,15.28,52.11,1023.94,2070.99,943.98,1332.92,1492.25,599.75,623.84,57.08,0000 0000 0000 0000 000000
2015-12-19 07:00:50,0.18,13.22,0.00,11.81,16.04,20.04,15.32,52.16,1023.94,2070.98,943.45,1332.20,1492.01,599.88,623.65,57.13,0000 0000 0000 0000 000000
2015-12-19 07:05:51,0.03,13.22,0.00,11.79,16.04,20.01,15.32,52.27,1023.94,2070.99,943.06,1332.01,1492.00,599.89,623.80,57.18,0000 0000 0000 0000 000000
2015-12-19 07:10:52,0.01,13.22,0.00,11.78,16.04,20.01,15.31,52.15,1023.94,2070.98,943.00,1331.99,1491.83,600.08,623.97,57.23,0000 0000 0000 0000 000000
2015-12-19 07:15:53,0.04,13.22,0.00,11.80,16.04,19.99,15.37,52.08,1023.94,2070.98,942.98,1331.98,1491.23,600.13,624.10,57.28,0000 0000 0000 0000 000000
2015-12-19 07:20:55,0.13,13.23,0.00,11.81,16.04,19.98,15.32,52.17,1023.94,2070.97,942.51,1331.73,1491.01,600.16,623.93,57.33,0000 0000 0000 0000 000000
2015-12-19 07:25:56,0.01,13.23,0.00,11.80,16.04,19.98,15.33,52.12,1023.96,2070.98,942.49,1331.28,1491.00,599.68,623.60,57.38,0000 0000 0000 0000 000000
2015-12-19 07:30:57,0.09,13.24,0.00,11.78,16.04,20.02,15.37,52.21,1024.01,2070.98,942.04,1331.02,1490.84,599.82,623.86,57.44,0000 0000 0000 0000 000000
2015-12-19 07:35:58,0.03,13.24,0.00,11.81,16.04,19.94,15.30,52.11,1024.04,2070.98,941.98,1331.00,1490.20,599.80,623.92,57.49,0000 0000 0000 0000 000000
2015-12-19 07:41:00,-0.00,13.24,0.00,11.79,16.04,19.98,15.35,52.07,1023.99,2070.98,941.98,1330.98,1490.01,599.90,623.84,57.54,0000 0000 0000 0000 000000
2015-12-19 07:46:01,0.03,13.24,0.00,11.78,16.04,19.93,15.43,51.92,1023.98,2070.97,941.92,1330.81,1490.00,600.11,624.17,57.59,0000 0000 0000 0000 000000
2015-12-19 07:51:02,0.19,13.24,0.00,11.78,16.04,19.95,15.29,51.68,1023.95,2070.97,941.33,1330.22,1489.80,600.05,623.95,57.64,0000 0000 0000 0000 000000
2015-12-19 07:56:03,0.11,13.25,0.00,11.77,16.04,19.98,15.36,51.96,1023.94,2070.98,940.77,1329.99,1489.06,599.94,623.88,57.69,0000 0000 0000 0000 000000
2015-12-19 08:01:05,0.15,13.26,0.00,11.73,16.03,19.99,15.39,52.19,1023.94,2070.97,940.03,1329.43,1488.81,600.19,624.31,57.74,0000 0000 0000 0000 000000
2015-12-19 08:06:06,0.19,13.27,0.00,11.74,16.02,19.97,15.30,52.18,1023.94,2070.98,939.24,1328.98,1488.05,599.85,623.94,57.79,0000 0000 0000 0000 000000
2015-12-19 08:11:08,0.20,13.28,0.00,11.78,16.02,19.99,15.33,52.31,1023.96,2070.97,938.46,1328.39,1487.73,599.82,623.85,57.84,0000 0000 0000 0000 000000
2015-12-19 08:16:09,0.03,13.29,0.00,11.79,16.02,19.93,15.26,52.11,1023.96,2070.98,938.27,1328.02,1487.10,600.01,623.94,57.89,0000 0000 0000 0000 000000
2015-12-19 08:21:11,0.03,13.29,0.00,11.79,16.03,19.98,15.32,52.18,1023.95,2070.99,938.02,1328.00,1487.00,599.66,623.64,57.94,0000 0000 0000 0000 000000
2015-12-19 08:26:12,0.01,13.29,0.00,11.79,16.04,20.00,15.29,52.02,1023.94,2070.98,937.99,1327.98,1486.93,600.09,623.85,57.99,0000 0000 0000 0000 000000
2015-12-19 08:31:13,0.08,13.29,0.00,11.77,16.04,20.01,15.31,51.91,1023.95,2070.98,937.94,1327.73,1486.46,599.77,623.74,58.04,0000 0000 0000 0000 000000
2015-12-19 08:36:14,0.17,13.30,0.00,11.76,16.04,19.99,15.36,51.95,1024.00,2070.98,937.24,1327.10,1486.02,600.14,624.18,58.09,0000 0000 0000 0000 000000
2015-12-19 08:41:15,0.02,13.30,0.00,11.78,16.04,19.98,15.34,51.98,1024.14,2070.97,937.01,1327.00,1486.00,600.17,624.31,58.14,0000 0000 0000 0000 000000
2015-12-19 08:46:17,0.03,13.30,0.00,11.78,16.04,20.00,15.36,52.12,1024.19,2070.99,936.90,1326.98,1485.81,600.15,624.23,58.19,0000 0000 0000 0000 000000
2015-12-19 08:51:18,0.18,13.31,0.00,11.78,16.04,19.97,15.33,52.13,1024.24,2070.99,936.25,1326.61,1485.14,600.23,624.04,58.24,0000 0000 0000 0000 000000
2015-12-19 08:56:19,0.05,13.32,0.00,11.79,16.04,20.03,15.44,52.21,1024.18,2070.98,936.01,1326.07,1485.00,599.86,624.05,58.29,0000 0000 0000 0000 000000
2015-12-19 09:01:20,0.00,13.32,0.00,11.80,16.05,20.01,15.39,52.24,1024.08,2070.98,936.02,1326.01,1484.99,600.17,624.22,58.34,0000 0000 0000 0000 000000
2015-12-19 09:06:22,0.11,13.32,0.00,11.80,16.06,20.03,15.24,52.17,1024.08,2070.98,935.70,1325.98,1484.50,599.92,623.87,58.40,0000 0000 0000 0000 000000
2015-12-19 09:11:23,0.09,13.33,0.00,11.81,16.07,20.05,15.35,52.22,1024.25,2070.98,935.08,1325.84,1484.03,599.77,623.75,58.45,0000 0000 0000 0000 000000
2015-12-19 09:16:24,0.07,13.33,0.00,11.79,16.07,20.01,15.37,52.31,1024.15,2070.98,935.00,1325.25,1484.00,599.80,623.87,58.50,0000 0000 0000 0000 000000
2015-12-19 09:21:25,0.01,13.33,0.00,11.79,16.07,20.01,15.35,52.37,1024.07,2070.98,934.96,1325.01,1483.99,599.77,623.80,58.55,0000 0000 0000 0000 000000
2015-12-19 09:26:26,0.00,13.33,0.00,11.79,16.07,20.00,15.33,52.27,1024.06,2070.98,934.99,1325.00,1483.90,599.67,623.69,58.60,0000 0000 0000 0000 000000
2015-12-19 09:31:28,0.04,13.33,0.00,11.78,16.07,20.02,15.32,52.11,1024.10,2070.97,934.98,1325.00,1483.30,599.71,623.91,58.65,0000 0000 0000 0000 000000
2015-12-19 09:36:29,0.06,13.33,0.00,11.78,16.08,20.03,15.29,52.13,1024.15,2070.96,934.74,1324.94,1483.01,599.88,624.05,58.70,0000 0000 0000 0000 000000
2015-12-19 09:41:31,0.11,13.34,0.00,11.78,16.08,20.01,15.27,52.03,1024.28,2070.91,934.08,1324.59,1483.00,599.78,623.86,58.75,0000 0000 0000 0000 000000
2015-12-19 09:46:32,0.05,13.34,0.00,11.78,16.09,19.98,15.38,52.18,1024.23,2070.94,934.00,1324.11,1482.94,600.17,624.27,58.80,0000 0000 0000 0000 000000
2015-12-19 09:51:33,0.04,13.35,0.00,11.79,16.09,19.94,15.40,52.23,1024.07,2070.93,933.98,1324.01,1482.37,600.24,624.19,58.85,0000 0000 0000 0000 000000
2015-12-19 09:56:35,0.01,13.35,0.00,11.77,16.09,20.01,15.41,52.22,1023.97,2070.93,933.90,1324.00,1482.03,600.18,624.19,58.90,0000 0000 0000 0000 000000
2015-12-19 10:01:36,0.09,13.35,0.00,11.77,16.09,20.07,15.32,52.18,1023.96,2070.85,933.22,1323.97,1482.00,599.72,623.71,58.95,0000 0000 0000 0000 000000
2015-12-19 10:06:37,0.04,13.35,0.00,11.79,16.09,20.03,15.29,52.16,1023.96,2070.83,933.00,1323.72,1481.97,600.13,624.17,59.00,0000 0000 0000 0000 000000
2015-12-19 10:11:39,0.10,13.36,0.00,11.81,16.09,19.99,15.35,52.12,1023.98,2070.86,932.99,1323.12,1481.64,600.39,624.21,59.05,0000 0000 0000 0000 000000
2015-12-19 10:16:40,0.02,13.36,0.00,11.82,16.09,20.03,15.28,52.06,1023.97,2070.87,932.96,1323.01,1481.11,600.01,624.00,59.10,0000 0000 0000 0000 000000
2015-12-19 10:21:41,0.05,13.36,0.00,11.81,16.09,20.07,15.30,52.02,1024.00,2070.84,932.68,1323.00,1481.00,599.95,623.86,59.15,0000 0000 0000 0000 000000
2015-12-19 10:26:42,0.08,13.37,0.00,11.82,16.09,20.09,15.34,51.88,1024.01,2070.85,932.05,1322.98,1481.00,600.38,624.30,59.20,0000 0000 0000 0000 000000
2015-12-19 10:31:43,0.03,13.37,0.00,11.80,16.09,20.02,15.31,51.87,1024.00,2070.80,932.00,1322.84,1480.94,600.14,624.24,59.25,0000 0000 0000 0000 000000
2015-12-19 10:36:45,0.08,13.37,0.00,11.79,16.09,20.04,15.34,51.83,1023.96,2070.88,931.99,1322.46,1480.51,599.73,623.75,59.31,0000 0000 0000 0000 000000
2015-12-19 10:41:46,0.10,13.38,0.00,11.79,16.09,19.99,15.32,52.01,1023.94,2070.90,931.76,1322.07,1480.07,599.88,623.84,59.36,0000 0000 0000 0000 000000
2015-12-19 10:46:48,0.02,13.38,0.00,11.80,16.08,20.08,15.42,52.10,1023.94,2070.91,931.46,1322.01,1480.00,600.43,624.39,59.41,0000 0000 0000 0000 000000
2015-12-19 10:51:49,0.06,13.38,0.00,11.79,16.08,19.99,15.26,51.77,1023.94,2070.94,931.20,1322.00,1480.00,599.93,623.65,59.46,0000 0000 0000 0000 000000
2015-12-19 10:56:50,0.01,13.38,0.00,11.79,16.08,20.00,15.31,51.92,1023.94,2070.88,931.00,1321.99,1479.88,599.83,623.85,59.51,0000 0000 0000 0000 000000
2015-12-19 11:01:51,0.03,13.38,0.00,11.80,16.08,20.00,15.33,51.99,1023.95,2070.83,930.99,1321.83,1479.41,600.17,624.34,59.56,0000 0000 0000 0000 000000
2015-12-19 11:06:53,0.10,13.39,0.00,11.81,16.07,20.04,15.41,52.08,1023.94,2070.83,930.86,1321.24,1479.04,600.08,623.96,59.61,0000 0000 0000 0000 000000
2015-12-19 11:11:54,0.11,13.40,0.00,11.81,16.07,20.01,15.29,52.16,1023.94,2070.92,930.20,1321.03,1479.00,599.78,623.77,59.66,0000 0000 0000 0000 000000
2015-12-19 11:16:56,-0.02,13.40,0.00,11.80,16.07,19.99,15.33,51.77,1023.94,2070.81,930.17,1321.01,1478.99,599.94,623.83,59.71,0000 0000 0000 0000 000000
2015-12-19 11:21:57,0.04,13.40,0.00,11.78,16.07,20.02,15.34,51.90,1023.94,2070.84,930.00,1320.99,1478.78,599.87,623.87,59.76,0000 0000 0000 0000 000000
2015-12-19 11:26:58,0.04,13.40,0.00,11.78,16.07,20.04,15.39,52.01,1023.94,2070.86,929.96,1320.96,1478.17,600.19,624.33,59.81,0000 0000 0000 0000 000000
2015-12-19 11:32:00,0.14,13.40,0.00,11.78,16.07,20.01,15.27,51.92,1023.94,2070.91,929.48,1320.79,1478.04,599.81,623.69,59.86,0000 0000 0000 0000 000000
2015-12-19 11:37:01,0.06,13.41,0.00,11.78,16.07,20.04,15.32,52.02,1023.94,2070.92,929.04,1320.27,1478.00,599.94,623.92,59.91,0000 0000 0000 0000 000000
2015-12-19 11:42:02,0.03,13.41,0.00,11.79,16.07,20.00,15.30,52.23,1023.94,2070.95,929.00,1320.02,1477.99,600.30,624.23,59.96,0000 0000 0000 0000 000000
2015-12-19 11:47:04,0.04,13.41,0.00,11.77,16.07,20.00,15.35,52.13,1023.94,2070.95,928.83,1320.01,1477.77,599.78,623.73,60.01,0000 0000 0000 0000 000000
2015-12-19 11:52:06,0.11,13.42,0.00,11.76,16.07,20.06,15.43,52.23,1023.93,2070.97,928.24,1319.99,1477.24,600.16,624.21,60.06,0000 0000 0000 0000 000000
2015-12-19 11:57:07,0.07,13.42,0.00,11.77,16.06,19.96,15.42,52.71,1023.94,2070.98,928.00,1319.79,1477.01,600.30,624.24,60.11,0000 0000 0000 0000 000000
2015-12-19 12:02:08,-0.02,2.68,0.00,11.78,16.08,20.03,13.56,43.94,1023.94,2075.79,3126.64,2891.91,3229.15,534.74,556.12,0.00,0000 0000 0000 0000 000000
2015-12-19 12:07:09,-0.02,0.00,0.00,11.78,16.07,20.00,15.37,48.82,1023.92,2076.96,3673.81,3284.01,3667.30,599.95,623.91,0.05,0000 0000 0000 0000 000000
2015-12-19 12:12:10,-0.01,0.00,0.00,11.78,16.07,19.98,15.27,48.55,1023.87,2076.97,3672.54,3283.18,3666.37,600.02,623.94,0.10,0000 0000 0000 0000 000000
2015-12-19 12:17:11,0.00,0.00,0.00,11.78,16.07,20.06,15.25,48.38,1023.64,2076.96,3671.31,3282.48,3665.45,599.93,623.71,0.15,0000 0000 0000 0000 000000
2015-12-19 12:22:12,0.02,0.00,0.00,11.78,16.07,20.02,15.30,48.42,1023.54,2076.95,3670.15,3281.86,3664.36,600.04,623.82,0.20,0000 0000 0000 0000 000000
2015-12-19 12:27:14,0.03,0.01,0.00,11.82,16.07,20.07,15.21,48.23,1023.59,2076.96,3669.19,3281.07,3663.71,599.99,623.72,0.25,0000 0000 0000 0000 000000
2015-12-19 12:32:15,0.03,0.01,0.00,11.81,16.08,20.00,15.25,48.09,1023.52,2076.96,3668.19,3280.51,3662.98,599.99,623.67,0.30,0000 0000 0000 0000 000000
2015-12-19 12:37:16,0.03,0.01,0.00,11.79,16.07,20.00,15.24,48.13,1023.48,2076.97,3667.16,3279.99,3662.23,599.80,623.43,0.35,0000 0000 0000 0000 000000
2015-12-19 12:42:17,0.04,0.01,0.00,11.83,16.07,20.05,15.34,48.27,1023.47,2076.97,3666.14,3279.31,3661.72,600.15,623.69,0.40,0000 0000 0000 0000 000000
2015-12-19 12:47:18,0.04,0.01,0.00,11.82,16.07,20.01,15.26,48.17,1023.45,2076.95,3664.95,3278.64,3661.00,600.31,623.78,0.45,0000 0000 0000 0000 000000
2015-12-19 12:52:20,0.03,0.02,0.00,11.82,16.07,19.97,15.28,48.26,1023.45,2076.97,3663.89,3278.00,3660.23,600.18,623.75,0.50,0000 0000 0000 0000 000000
2015-12-19 12:57:21,0.05,0.02,0.00,11.84,16.07,20.00,15.26,48.08,1023.45,2076.98,3662.85,3277.19,3659.48,599.72,623.24,0.55,0000 0000 0000 0000 000000